Regional Weather Roundup
Issued by NWS Wakefield, VA

Home | Current Version | Previous Version | Graphics & Text | Print | Product List | Glossary On
Versions: 1 2 3 4 5 6 7 8 9 10 11 12 13 14 15 16 17 18 19 20 21 22 23 24 25 26 27 28
000
ASUS41 KAKQ 011915
RWRAKQ

REGIONAL WEATHER ROUNDUP
NATIONAL WEATHER SERVICE WAKEFIELD VA
300 PM EDT SUN MAY 01 2016

Note: "fair" indicates few or no clouds below 12,000 feet with no
significant weather and/or obstructions to visibility. * = Denotes
station may not report precipitation (e.g., rain,snow,etc.),
thunder or fog.

VAZ042-051-052>054-056-012000-
NORTHERN VIRGINIA

CITY           SKY/WX    TMP DP  RH WIND       PRES   REMARKS
WASH NATIONAL  CLOUDY    58  54  86 SE3       30.06F
DULLES         CLOUDY    57  54  89 S6        30.05S
FORT BELVOIR   CLOUDY    59  55  85 VRB5      30.05F
QUANTICO       CLOUDY    60  56  86 SE7       30.05F
FREDERICKSBRG* CLOUDY    62  60  94 SE3       30.03F
STAFFORD*      CLOUDY    61  56  83 SE5       30.07F
WARRENTON      CLOUDY    64  54  71 E5        30.02F
CULPEPER*      CLOUDY    63  57  81 SE3       30.03F
MANASSAS*      CLOUDY    61  57  88 S8        30.04F
LEESBURG*      CLOUDY    59  57  94 S7        30.04F
WINCHESTER     PTSUNNY   64  55  72 SE5       30.00F
FRONT ROYAL*   FAIR      63  55  77 E10G17    29.98F
LURAY*         FAIR      73  59  60 CALM      29.96F
$$

VAZ048-049-060>072-079>083-012000-
CENTRAL AND SOUTH CENTRAL VIRGINIA

CITY           SKY/WX    TMP DP  RH WIND       PRES   REMARKS
RICHMOND       CLOUDY    61  60  97 S6        30.03F
CHESTERFIELD*  CLOUDY    63  50  63 S5        30.04F
PETERSBURG*    CLOUDY    66  66 100 S6        30.03F
HANOVER        CLOUDY    60  56  86 CALM      30.05F
TAPPAHANNOCK*  CLOUDY    61  60  97 S3        30.05S
QUINTON*       CLOUDY    61  60  97 CALM      30.03F
CHARLOTTSVILLE CLOUDY    64  56  75 VRB3      30.01F
GORDONSVILLE*  CLOUDY    64  58  82 CALM      30.01F
ORANGE*        CLOUDY    64  59  82 SW3       30.03F
LOUISA*        CLOUDY    66  63  88 CALM      30.01F
BUMPASS*       CLOUDY    63  58  85 S5        30.03F
FARMVILLE*     CLOUDY    63  61  94 S5        30.01F
CREWE*         CLOUDY    61  61 100 S3        30.02F
FORT PICKETT*  NOT AVBL
CHASE CITY*    CLOUDY    70  68  94 S7        30.01F
CLARKSVILLE*   CLOUDY    70  66  88 S10       30.02F
SOUTH HILL*    CLOUDY    69  66  92 S9        30.08F
LAWRENCEVILLE* CLOUDY    68  66  93 S9        30.02F
EMPORIA*       CLOUDY    70  64  83 SE9       30.05F
$$

VAZ088>098-012000-
SOUTHEAST VIRGINIA

CITY           SKY/WX    TMP DP  RH WIND       PRES   REMARKS
NORFOLK        CLOUDY    64  59  83 NE5       30.05F
VIRGINIA BEACH RAIN      70  61  73 W3        30.07F
NORFOLK NAVAL  CLOUDY    67  61  81 SE5       30.06F
WEST POINT*    CLOUDY    62  60  94 SE5       30.05F
SALUDA*        CLOUDY    60  59  96 S5        30.04F
NEWPORT NEWS   LGT RAIN  64  62  93 S6        30.04F
LANGLEY AFB    FAIR      66  62  88 S5        30.04F
FORT EUSTIS    LGT RAIN  62  62  97 S6        30.02F
WILLIAMSBURG*  FAIR      64  63  94 SE5       30.04F
HR EXEC AP*      N/A     66  64  94 CALM      30.08F
FRANKLIN*      PTSUNNY   69  65  88 S7        30.06F
US460-WAKEFLD  FAIR      67  62  84 S6        30.04F
$$

VAZ020-022-025-037-045-012000-
WEST CENTRAL AND SOUTHWEST VIRGINIA

CITY           SKY/WX    TMP DP  RH WIND       PRES   REMARKS
STAUNTON*      FAIR      74  62  67 S12       29.98F
WAYNESBORO*    MOCLDY    70  60  70 MISG      29.98F
HOT SPRINGS VA FAIR      67  58  71 SW12      30.05S
LYNCHBURG      CLOUDY    65  61  87 S8        30.02F
DANVILLE       CLOUDY    71  66  84 SW7       30.02F
SOUTH BOSTON*  CLOUDY    70  69  96 SW7       30.02F
MARTINSVILLE   CLOUDY    67  62  83 SW6       30.06F
ROANOKE        FAIR      72  62  71 SE8       30.02F
BLACKSBURG     PTSUNNY   75  62  65 SW3       30.06S
DUBLIN*        FAIR      76  61  57 SW9       30.04F
MARION*        FAIR      74  59  60 W13       30.08S
HILLSVILLE*    PTSUNNY   69  64  81 S5        30.06S
RICHLANDS*     FAIR      73  40  30 SW9G16    30.05S
WISE*          FAIR      73  55  53 S10       30.05F
ABINGDON*      FAIR      75  63  66 W8        30.05F
$$

MDZ021>025-VAZ099-100-012000-
SOUTHERN MARYLAND AND THE DELMARVA PENINSULA

CITY           SKY/WX    TMP DP  RH WIND       PRES   REMARKS
PATUXENT RIVER CLOUDY    57  54  89 SE10      30.05F
BAY BRIDGE APT NOT AVBL
LEONARDTOWN    CLOUDY    55  54  94 CALM      30.07S
DOVER          LGT RAIN  52  52 100 E7        30.10S FOG
GEORGETOWN     LGT RAIN  52  52 100 VRB3      30.09S FOG
EASTON         CLOUDY   N/A N/A N/A SE3       30.12
CAMBRIDGE      CLOUDY    54  52  94 E6        30.06F
SALISBURY      CLOUDY    55  53  93 SE8       30.07S
OCEAN CITY     LGT RAIN N/A N/A N/A E6        30.08F
WALLOPS ISLAND LGT RAIN  57  54  89 MISG      30.08F
ACCOMACK*      CLOUDY   N/A N/A N/A S8G17     30.06F
$$

NCZ012>017-030>032-012000-
NORTH CENTRAL AND EASTERN NORTH CAROLINA

CITY           SKY/WX    TMP DP  RH WIND       PRES   REMARKS
ROANOKE RAPIDS CLOUDY    72  64  78 S12       30.05F
RALEIGH        CLOUDY    74  66  76 SW13      30.04F
ELIZABETH CITY RAIN      71  67  87 SW8       30.07F FOG
AHOSKIE*       MOSUNNY   70  65  84 S6        30.06F
EDENTON*       NOT AVBL
CURRITUCK*     LGT RAIN  73  66  79 SW7       30.08S
KILL DEVIL HLS CLOUDY    74  63  68 S5        30.07F
MANTEO         NOT AVBL
CAPE HATTERAS  CLOUDY    71  65  81 SW7       30.11S
TARBORO*       MOCLDY    73  66  79 S8        30.06F
GOLDSBORO      CLOUDY    70  70 100 S7        30.02F
WASHINGTON     RAIN      70  67  88 SW5       30.08S
GREENVILLE     CLOUDY    72  70  94 S10       30.07F
NEW BERN       LGT RAIN  76  61  59 SW14      30.11R
WILMINGTON     HVY RAIN  70  66  87 NW9       30.10R FOG
$$

VAZ048-012000-
ELSEWHERE

CITY           SKY/WX    TMP DP  RH WIND       PRES   REMARKS
HARRISBURG PA  CLOUDY    53  48  83 SE9       30.06F
BALTIMORE      CLOUDY    54  51  90 SE7       30.07F
ANNAPOLIS      CLOUDY    55  52  89 SE10      30.07F
ANDREWS AFB    CLOUDY    56  54  94 E7        30.05F
PHILADELPHIA   LGT RAIN  52  48  86 SE6       30.12F
HENDERSON NC   CLOUDY    71  67  85 S16G22    30.02F
GREENSBORO     PTSUNNY   75  65  70 SW8       30.03F
ROCKY MOUNT    CLOUDY    71  66  84 VRB5      30.05F
$$

VAZ100-012000-
MARINE

STATION/POSITION TIME  TEMP    WIND        PRES    WAVE   SWELL
                       AIR SEA DIR/SP/G            HT/PER HT/PER
                 (UTC) (F)     (DEG/KT/KT) (MB)    (FT/S) (FT/S)
BRANDYWINE LGT   1800   51     110/ 12/ 13 1019.3F
CAPE MAY NJ      1800   51 57   80/  6/  9 1019.5R
LEWES DE         1800   51 55  110/  8/ 10 1019.4S
15NM E FENWICK I 1850   51 51              1018.6F   4/ 8
OCEAN-CITY-INLET 1800   53 54  130/  6/  9 1018.5F
WACHAPREAGUE VA  1800   57 58  190/  6/  8 1018.6F
THOMAS POINT MD  1900   54 57  130/  9/ 10 1019.5F
GOOSES REEF MD   1900   56 57  140/ 10/ 12 1018.9F   1/ 2
COVE POINT MD    1800   54     170/ 13/ 14 1019.0F
SOLOMONS ISLAND  1800   56 59  140/ 10/ 12   N/A
BISHOPS HEAD MD  1800   55 57  150/  8/  9 1018.1F
PINEY POINT MD   1800          160/ 11/ 11   N/A
POTOMAC MD       1800   56 58  180/  8/ 10 1017.6F   2/ 3
CAMBRIDGE MD     1800   54 60  140/  4/  6 1018.1F
LEWISETTA VA     1800   56 59  130/  5/  7 1017.8F
RAPPAHANNOCK LGT 1800          150/ 12/ 13 1019.1F
STINGRAY PT      1800   59 60  180/ 14/ 16 1019.0F   2/ 3
YORK RVR RNG VA  1800   58     160/ 13/ 14 1017.6F
YORKTOWN VA      1800   61 61  180/  5/  7 1018.0F
JAMESTOWN VA     1800   61 65  160/  4/  8   N/A     0
DOMINION TERM VA 1800   63     340/  7/ 10 1019.1R
KIPTOPEKE VA     1800      60  170/  5/  6   N/A
CHES BAY BRIDGE  1800   61 60  350/  4/  4 1018.7R
CAPE HENRY VA    1800   59     140/  5/  6   N/A
CHESAPEAKE LGHT  1800   57     170/ 11/ 11 1019.3S
WILLOUBY STN VA  1800   63     320/  5/  5 1020.0R
CAPE HENRY BUOY  1812      56                N/A     3/ 9   2/11
CAPE CHARLES BUO 1826      57                N/A     3/11   3/11
OFFSHORE WE BUOY 1821      54                N/A     4/ 8   3/ 8
64NM E OF VA BCH 1850   58 53  170/  8/ 10 1018.8S   4/ 8   3/ 8
DUCK PIER NC     1800   73 67  210/ 12/ 14 1018.2F
44100 DUCK FRF   1824      55                N/A     4/ 9   2/11
44056 DUCK FRF   1811      60                N/A     4/ 9   2/11
OREGON INLET NC  1800   69 60  190/ 10/ 11 1019.3R
HATTERAS NC      1800   73 67  180/  5/ 10 1019.5F
DIAMOND SHLS NC  1850   74 74  190/ 16/ 17 1019.2F   4/11   3/11
CAPE LOOKOUT NC  1800   71     180/  9/ 10C1F1C2F2C3F3C4F4C5F5C6F6C7F7C8M1C9!



USA.gov is the U.S. government's official web portal to all federal, state and local government web resources and services.